Time,TemperatureF,DewpointF,PressureIn,WindDirection,WindDirectionDegrees,WindSpeedMPH,WindSpeedGustMPH,Humidity,HourlyPrecipIn,Conditions,Clouds,dailyrainin,SolarRadiationWatts/m^2,SoftwareType,DateUTC
2013-07-27 00:01:00,53.0,52.0,-100.00,North,1,0.0,0.0,98,0.00,,,0.00,0.000000,,2013-07-27 04:01:00,
2013-07-27 00:32:00,53.0,52.0,-100.00,North,1,0.0,0.0,98,0.00,,,0.00,0.000000,,2013-07-27 04:32:00,
2013-07-27 00:43:00,53.0,52.0,-100.00,North,1,0.0,0.0,98,0.00,,,0.00,0.000000,,2013-07-27 04:43:00,
2013-07-27 00:53:00,53.0,52.0,-100.00,North,1,0.0,0.0,98,0.00,,,0.00,0.000000,,2013-07-27 04:53:00,
2013-07-27 01:01:00,51.0,50.0,-100.00,North,1,0.0,0.0,98,0.00,,,0.00,0.000000,,2013-07-27 05:01:00,
2013-07-27 01:33:00,51.0,50.0,-100.00,North,1,0.0,0.0,98,0.00,,,0.00,0.000000,,2013-07-27 05:33:00,
2013-07-27 01:43:00,51.0,50.0,-100.00,North,1,0.0,0.0,98,0.00,,,0.00,0.000000,,2013-07-27 05:43:00,
2013-07-27 01:52:00,51.0,50.0,-100.00,North,1,0.0,0.0,98,0.00,,,0.00,0.000000,,2013-07-27 05:52:00,
2013-07-27 02:01:00,50.0,49.0,-100.00,North,0,0.0,0.0,98,0.00,,,0.00,0.000000,,2013-07-27 06:01:00,
2013-07-27 02:33:00,50.0,49.0,-100.00,North,0,0.0,0.0,98,0.00,,,0.00,0.000000,,2013-07-27 06:33:00,
2013-07-27 02:43:00,50.0,49.0,-100.00,North,0,0.0,0.0,98,0.00,,,0.00,0.000000,,2013-07-27 06:43:00,
2013-07-27 02:52:00,50.0,49.0,-100.00,North,0,0.0,0.0,98,0.00,,,0.00,0.000000,,2013-07-27 06:52:00,
2013-07-27 03:01:00,49.0,48.0,-100.00,North,0,0.0,0.0,98,0.00,,,0.00,0.000000,,2013-07-27 07:01:00,
2013-07-27 03:34:00,49.0,48.0,-100.00,North,0,0.0,0.0,98,0.00,,,0.00,0.000000,,2013-07-27 07:34:00,
2013-07-27 03:44:00,49.0,48.0,-100.00,North,0,0.0,0.0,98,0.00,,,0.00,0.000000,,2013-07-27 07:44:00,
2013-07-27 03:53:00,49.0,48.0,-100.00,North,0,0.0,0.0,98,0.00,,,0.00,0.000000,,2013-07-27 07:53:00,
2013-07-27 04:01:00,48.0,48.0,-100.00,North,1,0.0,0.0,99,0.00,,,0.00,0.000000,,2013-07-27 08:01:00,
2013-07-27 04:32:00,48.0,48.0,-100.00,North,1,0.0,0.0,99,0.00,,,0.00,0.000000,,2013-07-27 08:32:00,
2013-07-27 04:43:00,48.0,48.0,-100.00,North,1,0.0,0.0,99,0.00,,,0.00,0.000000,,2013-07-27 08:43:00,
2013-07-27 04:53:00,48.0,48.0,-100.00,North,1,0.0,0.0,99,0.00,,,0.00,0.000000,,2013-07-27 08:53:00,
2013-07-27 05:01:00,47.0,47.0,-100.00,North,1,0.0,0.0,99,0.00,,,0.00,0.000000,,2013-07-27 09:01:00,
2013-07-27 05:33:00,47.0,47.0,-100.00,North,1,0.0,0.0,99,0.00,,,0.00,0.000000,,2013-07-27 09:33:00,
2013-07-27 05:44:00,47.0,47.0,-100.00,North,1,0.0,0.0,99,0.00,,,0.00,0.000000,,2013-07-27 09:44:00,
2013-07-27 05:52:00,47.0,47.0,-100.00,North,1,0.0,0.0,99,0.00,,,0.00,0.000000,,2013-07-27 09:52:00,
2013-07-27 06:01:00,46.0,46.0,-100.00,North,1,0.0,0.0,99,0.00,,,0.00,2.000000,,2013-07-27 10:01:00,
2013-07-27 06:32:00,46.0,46.0,-100.00,North,1,0.0,0.0,99,0.00,,,0.00,2.000000,,2013-07-27 10:32:00,
2013-07-27 06:44:00,46.0,46.0,-100.00,North,1,0.0,0.0,99,0.00,,,0.00,2.000000,,2013-07-27 10:44:00,
2013-07-27 06:52:00,46.0,46.0,-100.00,North,1,0.0,0.0,99,0.00,,,0.00,2.000000,,2013-07-27 10:52:00,
2013-07-27 07:01:00,48.0,48.0,-100.00,North,1,0.0,0.0,99,0.00,,,0.00,17.000000,,2013-07-27 11:01:00,
2013-07-27 07:32:00,48.0,48.0,-100.00,North,1,0.0,0.0,99,0.00,,,0.00,17.000000,,2013-07-27 11:32:00,
2013-07-27 07:44:00,48.0,48.0,-100.00,North,1,0.0,0.0,99,0.00,,,0.00,17.000000,,2013-07-27 11:44:00,
2013-07-27 07:53:00,48.0,48.0,-100.00,North,1,0.0,0.0,99,0.00,,,0.00,17.000000,,2013-07-27 11:53:00,
2013-07-27 08:01:00,52.0,52.0,-100.00,North,1,0.0,0.0,99,0.00,,,0.00,32.000000,,2013-07-27 12:01:00,
2013-07-27 08:33:00,52.0,52.0,-100.00,North,1,0.0,0.0,99,0.00,,,0.00,32.000000,,2013-07-27 12:33:00,
2013-07-27 08:43:00,52.0,52.0,-100.00,North,1,0.0,0.0,99,0.00,,,0.00,32.000000,,2013-07-27 12:43:00,
2013-07-27 08:52:00,52.0,52.0,-100.00,North,1,0.0,0.0,99,0.00,,,0.00,32.000000,,2013-07-27 12:52:00,
2013-07-27 09:01:00,61.0,61.0,-100.00,NE,49,0.0,3.0,99,-99.99,,,0.00,186.000000,,2013-07-27 13:01:00,
2013-07-27 09:44:00,61.0,61.0,-100.00,NE,49,0.0,3.0,99,-99.99,,,0.00,186.000000,,2013-07-27 13:44:00,
2013-07-27 09:53:00,61.0,61.0,-100.00,NE,49,0.0,3.0,99,-99.99,,,0.00,186.000000,,2013-07-27 13:53:00,
2013-07-27 10:01:00,74.0,63.0,-100.00,NNE,14,0.0,2.0,68,-99.99,,,0.00,588.000000,,2013-07-27 14:01:00,
2013-07-27 10:33:00,74.0,63.0,-100.00,NNE,14,0.0,2.0,68,-99.99,,,0.00,588.000000,,2013-07-27 14:33:00,
2013-07-27 10:44:00,74.0,63.0,-100.00,NNE,14,0.0,2.0,68,-99.99,,,0.00,588.000000,,2013-07-27 14:44:00,
2013-07-27 10:54:00,74.0,63.0,-100.00,NNE,14,0.0,2.0,68,-99.99,,,0.00,588.000000,,2013-07-27 14:54:00,
2013-07-27 11:01:00,78.0,63.0,-100.00,NNE,27,1.0,4.0,60,0.00,,,0.00,708.000000,,2013-07-27 15:01:00,
2013-07-27 11:33:00,78.0,63.0,-100.00,NNE,27,1.0,4.0,60,0.00,,,0.00,708.000000,,2013-07-27 15:33:00,
2013-07-27 11:44:00,78.0,63.0,-100.00,NNE,27,1.0,4.0,60,0.00,,,0.00,708.000000,,2013-07-27 15:44:00,
2013-07-27 11:53:00,78.0,63.0,-100.00,NNE,27,1.0,4.0,60,0.00,,,0.00,708.000000,,2013-07-27 15:53:00,
2013-07-27 12:01:00,83.0,65.0,-100.00,North,354,0.0,4.0,54,0.00,,,0.00,914.000000,,2013-07-27 16:01:00,
2013-07-27 12:33:00,83.0,65.0,-100.00,North,354,0.0,4.0,54,0.00,,,0.00,914.000000,,2013-07-27 16:33:00,
2013-07-27 12:43:00,83.0,65.0,-100.00,North,354,0.0,4.0,54,0.00,,,0.00,914.000000,,2013-07-27 16:43:00,
2013-07-27 12:54:00,83.0,65.0,-100.00,North,354,0.0,4.0,54,0.00,,,0.00,914.000000,,2013-07-27 16:54:00,
2013-07-27 13:01:00,85.0,63.0,-100.00,ENE,76,1.0,5.0,48,0.00,,,0.00,997.000000,,2013-07-27 17:01:00,
2013-07-27 13:23:00,85.0,63.0,-100.00,ENE,76,1.0,5.0,48,0.00,,,0.00,997.000000,,2013-07-27 17:23:00,
2013-07-27 13:32:00,85.0,63.0,-100.00,ENE,76,1.0,5.0,48,0.00,,,0.00,997.000000,,2013-07-27 17:32:00,
2013-07-27 13:43:00,85.0,63.0,-100.00,ENE,76,1.0,5.0,48,0.00,,,0.00,997.000000,,2013-07-27 17:43:00,
2013-07-27 13:54:00,85.0,63.0,-100.00,ENE,76,1.0,5.0,48,0.00,,,0.00,997.000000,,2013-07-27 17:54:00,
2013-07-27 14:01:00,87.0,58.0,-100.00,SSE,158,1.0,6.0,38,0.00,,,-99.99,992.000000,,2013-07-27 18:01:00,
2013-07-27 14:22:00,87.0,58.0,-100.00,SSE,158,1.0,6.0,38,0.00,,,-99.99,992.000000,,2013-07-27 18:22:00,
2013-07-27 14:33:00,87.0,58.0,-100.00,SSE,158,1.0,6.0,38,0.00,,,-99.99,992.000000,,2013-07-27 18:33:00,
2013-07-27 14:43:00,87.0,58.0,-100.00,SSE,158,1.0,6.0,38,0.00,,,-99.99,992.000000,,2013-07-27 18:43:00,
2013-07-27 14:53:00,87.0,58.0,-100.00,SSE,158,1.0,6.0,38,0.00,,,-99.99,992.000000,,2013-07-27 18:53:00,
2013-07-27 15:01:00,86.0,57.0,-100.00,South,186,2.0,5.0,37,0.00,,,-99.99,888.000000,,2013-07-27 19:01:00,
2013-07-27 15:32:00,86.0,57.0,-100.00,South,186,2.0,5.0,37,0.00,,,-99.99,888.000000,,2013-07-27 19:32:00,
2013-07-27 15:43:00,86.0,57.0,-100.00,South,186,2.0,5.0,37,0.00,,,-99.99,888.000000,,2013-07-27 19:43:00,
2013-07-27 15:53:00,86.0,57.0,-100.00,South,186,2.0,5.0,37,0.00,,,-99.99,888.000000,,2013-07-27 19:53:00,
2013-07-27 16:01:00,86.0,62.0,-100.00,ENE,74,0.0,3.0,44,0.00,,,0.00,502.000000,,2013-07-27 20:01:00,
2013-07-27 16:33:00,86.0,62.0,-100.00,ENE,74,0.0,3.0,44,0.00,,,0.00,502.000000,,2013-07-27 20:33:00,
2013-07-27 16:43:00,86.0,62.0,-100.00,ENE,74,0.0,3.0,44,0.00,,,0.00,502.000000,,2013-07-27 20:43:00,
2013-07-27 16:52:00,86.0,62.0,-100.00,ENE,74,0.0,3.0,44,0.00,,,0.00,502.000000,,2013-07-27 20:52:00,
2013-07-27 17:01:00,83.0,64.0,-100.00,NNE,24,2.0,7.0,53,0.00,,,0.00,493.000000,,2013-07-27 21:01:00,
2013-07-27 17:23:00,83.0,64.0,-100.00,NNE,24,2.0,7.0,53,0.00,,,0.00,493.000000,,2013-07-27 21:23:00,
2013-07-27 17:33:00,83.0,64.0,-100.00,NNE,24,2.0,7.0,53,0.00,,,0.00,493.000000,,2013-07-27 21:33:00,
2013-07-27 17:43:00,83.0,64.0,-100.00,NNE,24,2.0,7.0,53,0.00,,,0.00,493.000000,,2013-07-27 21:43:00,
2013-07-27 17:53:00,83.0,64.0,-100.00,NNE,24,2.0,7.0,53,0.00,,,0.00,493.000000,,2013-07-27 21:53:00,
2013-07-27 18:01:00,80.0,69.0,-100.00,North,5,0.0,5.0,69,0.00,,,0.00,212.000000,,2013-07-27 22:01:00,
2013-07-27 18:22:00,80.0,69.0,-100.00,North,5,0.0,5.0,69,0.00,,,0.00,212.000000,,2013-07-27 22:22:00,
2013-07-27 18:33:00,80.0,69.0,-100.00,North,5,0.0,5.0,69,0.00,,,0.00,212.000000,,2013-07-27 22:33:00,
2013-07-27 18:43:00,80.0,69.0,-100.00,North,5,0.0,5.0,69,0.00,,,0.00,212.000000,,2013-07-27 22:43:00,
2013-07-27 18:53:00,80.0,69.0,-100.00,North,5,0.0,5.0,69,0.00,,,0.00,212.000000,,2013-07-27 22:53:00,
2013-07-27 19:01:00,77.0,68.0,-100.00,NW,319,0.0,6.0,73,0.00,,,0.00,172.000000,,2013-07-27 23:01:00,
2013-07-27 19:22:00,77.0,68.0,-100.00,NW,319,0.0,6.0,73,0.00,,,0.00,172.000000,,2013-07-27 23:22:00,
2013-07-27 19:33:00,77.0,68.0,-100.00,NW,319,0.0,6.0,73,0.00,,,0.00,172.000000,,2013-07-27 23:33:00,
2013-07-27 19:44:00,77.0,68.0,-100.00,NW,319,0.0,6.0,73,0.00,,,0.00,172.000000,,2013-07-27 23:44:00,
2013-07-27 19:53:00,77.0,68.0,-100.00,NW,319,0.0,6.0,73,0.00,,,0.00,172.000000,,2013-07-27 23:53:00,
2013-07-27 20:01:00,73.0,66.0,-100.00,WNW,285,0.0,4.0,80,0.00,,,0.00,53.000000,,2013-07-28 00:01:00,
2013-07-27 20:32:00,73.0,66.0,-100.00,WNW,285,0.0,4.0,80,0.00,,,0.00,53.000000,,2013-07-28 00:32:00,
2013-07-27 20:44:00,73.0,66.0,-100.00,WNW,285,0.0,4.0,80,0.00,,,0.00,53.000000,,2013-07-28 00:44:00,
2013-07-27 20:53:00,73.0,66.0,-100.00,WNW,285,0.0,4.0,80,0.00,,,0.00,53.000000,,2013-07-28 00:53:00,
2013-07-27 21:01:00,70.0,66.0,-100.00,WNW,285,0.0,0.0,88,0.00,,,0.00,3.000000,,2013-07-28 01:01:00,
2013-07-27 21:32:00,70.0,66.0,-100.00,WNW,285,0.0,0.0,88,0.00,,,0.00,3.000000,,2013-07-28 01:32:00,
2013-07-27 21:43:00,70.0,66.0,-100.00,WNW,285,0.0,0.0,88,0.00,,,0.00,3.000000,,2013-07-28 01:43:00,
2013-07-27 21:53:00,70.0,66.0,-100.00,WNW,285,0.0,0.0,88,0.00,,,0.00,3.000000,,2013-07-28 01:53:00,
2013-07-27 22:01:00,69.0,66.0,-100.00,WNW,294,0.0,0.0,90,0.00,,,0.00,0.000000,,2013-07-28 02:01:00,
2013-07-27 22:23:00,69.0,66.0,-100.00,WNW,294,0.0,0.0,90,0.00,,,0.00,0.000000,,2013-07-28 02:23:00,
2013-07-27 22:32:00,69.0,66.0,-100.00,WNW,294,0.0,0.0,90,0.00,,,0.00,0.000000,,2013-07-28 02:32:00,
2013-07-27 22:43:00,69.0,66.0,-100.00,WNW,294,0.0,0.0,90,0.00,,,0.00,0.000000,,2013-07-28 02:43:00,
2013-07-27 22:53:00,69.0,66.0,-100.00,WNW,294,0.0,0.0,90,0.00,,,0.00,0.000000,,2013-07-28 02:53:00,
2013-07-27 23:01:00,68.0,65.0,-100.00,NNE,13,0.0,2.0,91,0.00,,,0.00,0.000000,,2013-07-28 03:01:00,
2013-07-27 23:22:00,68.0,65.0,-100.00,NNE,13,0.0,2.0,91,0.00,,,0.00,0.000000,,2013-07-28 03:22:00,
2013-07-27 23:32:00,68.0,65.0,-100.00,NNE,13,0.0,2.0,91,0.00,,,0.00,0.000000,,2013-07-28 03:32:00,
2013-07-27 23:43:00,68.0,65.0,-100.00,NNE,13,0.0,2.0,91,0.00,,,0.00,0.000000,,2013-07-28 03:43:00,
2013-07-27 23:53:00,68.0,65.0,-100.00,NNE,13,0.0,2.0,91,0.00,,,0.00,0.000000,,2013-07-28 03:53:00,